Year,Month,Day,Hour,Minute,Value (Times are PST for temperature in C)
2014,09,20,00,00,15.00
2014,09,20,00,01,15.00
2014,09,20,00,02,15.00
2014,09,20,00,03,15.00
2014,09,20,00,04,14.90
2014,09,20,00,05,14.90
2014,09,20,00,06,14.90
2014,09,20,00,07,14.80
2014,09,20,00,08,14.80
2014,09,20,00,09,14.80
2014,09,20,00,10,14.80
2014,09,20,00,11,14.80
2014,09,20,00,12,14.90
2014,09,20,00,13,14.90
2014,09,20,00,14,15.00
2014,09,20,00,15,15.00
2014,09,20,00,16,15.00
2014,09,20,00,17,15.00
2014,09,20,00,18,15.00
2014,09,20,00,19,15.00
2014,09,20,00,20,15.00
2014,09,20,00,21,15.00
2014,09,20,00,22,15.00
2014,09,20,00,23,15.00
2014,09,20,00,24,15.00
2014,09,20,00,25,15.00
2014,09,20,00,26,15.00
2014,09,20,00,27,15.00
2014,09,20,00,28,15.00
2014,09,20,00,29,15.00
2014,09,20,00,30,15.00
2014,09,20,00,31,15.00
2014,09,20,00,32,15.00
2014,09,20,00,33,15.00
2014,09,20,00,34,15.00
2014,09,20,00,35,15.00
2014,09,20,00,36,15.00
2014,09,20,00,37,15.00
2014,09,20,00,38,15.00
2014,09,20,00,39,15.00
2014,09,20,00,40,15.00
2014,09,20,00,41,15.00
2014,09,20,00,42,14.90
2014,09,20,00,43,14.90
2014,09,20,00,44,14.90
2014,09,20,00,45,14.90
2014,09,20,00,46,14.90
2014,09,20,00,47,14.80
2014,09,20,00,48,14.80
2014,09,20,00,49,14.80
2014,09,20,00,50,14.80
2014,09,20,00,51,14.80
2014,09,20,00,52,14.80
2014,09,20,00,53,14.80
2014,09,20,00,54,14.80
2014,09,20,00,55,14.80
2014,09,20,00,56,14.80
2014,09,20,00,57,14.80
2014,09,20,00,58,14.80
2014,09,20,00,59,14.80
2014,09,20,01,00,14.80
2014,09,20,01,01,14.70
2014,09,20,01,02,14.70
2014,09,20,01,03,14.70
2014,09,20,01,04,14.70
2014,09,20,01,05,14.70
2014,09,20,01,06,14.70
2014,09,20,01,07,14.70
2014,09,20,01,08,14.70
2014,09,20,01,09,14.70
2014,09,20,01,10,14.70
2014,09,20,01,11,14.70
2014,09,20,01,12,14.70
2014,09,20,01,13,14.70
2014,09,20,01,14,14.70
2014,09,20,01,15,14.70
2014,09,20,01,16,14.70
2014,09,20,01,17,14.70
2014,09,20,01,18,14.70
2014,09,20,01,19,14.70
2014,09,20,01,20,14.60
2014,09,20,01,21,14.60
2014,09,20,01,22,14.60
2014,09,20,01,23,14.60
2014,09,20,01,24,14.60
2014,09,20,01,25,14.60
2014,09,20,01,26,14.60
2014,09,20,01,27,14.60
2014,09,20,01,28,14.50
2014,09,20,01,29,14.50
2014,09,20,01,30,14.50
2014,09,20,01,31,14.40
2014,09,20,01,32,14.40
2014,09,20,01,33,14.40
2014,09,20,01,34,14.40
2014,09,20,01,35,14.40
2014,09,20,01,36,14.40
2014,09,20,01,37,14.40
2014,09,20,01,38,14.30
2014,09,20,01,39,14.30
2014,09,20,01,40,14.30
2014,09,20,01,41,14.30
2014,09,20,01,42,14.30
2014,09,20,01,43,14.30
2014,09,20,01,44,14.30
2014,09,20,01,45,14.30
2014,09,20,01,46,14.30
2014,09,20,01,47,14.30
2014,09,20,01,48,14.20
2014,09,20,01,49,14.20
2014,09,20,01,50,14.20
2014,09,20,01,51,14.20
2014,09,20,01,52,14.20
2014,09,20,01,53,14.20
2014,09,20,01,54,14.20
2014,09,20,01,55,14.20
2014,09,20,01,56,14.20
2014,09,20,01,57,14.20
2014,09,20,01,58,14.10
2014,09,20,01,59,14.10
2014,09,20,02,00,14.10
2014,09,20,02,01,14.10
2014,09,20,02,02,14.10
2014,09,20,02,03,14.00
2014,09,20,02,04,14.00
2014,09,20,02,05,14.00
2014,09,20,02,06,13.90
2014,09,20,02,07,13.90
2014,09,20,02,08,13.90
2014,09,20,02,09,13.90
2014,09,20,02,10,13.90
2014,09,20,02,11,13.80
2014,09,20,02,12,13.80
2014,09,20,02,13,13.80
2014,09,20,02,14,13.80
2014,09,20,02,15,13.80
2014,09,20,02,16,13.90
2014,09,20,02,17,13.90
2014,09,20,02,18,13.90
2014,09,20,02,19,13.90
2014,09,20,02,20,13.90
2014,09,20,02,21,14.00
2014,09,20,02,22,14.00
2014,09,20,02,23,14.10
2014,09,20,02,24,14.10
2014,09,20,02,25,14.20
2014,09,20,02,26,14.20
2014,09,20,02,27,14.20
2014,09,20,02,28,14.20
2014,09,20,02,29,14.20
2014,09,20,02,30,14.20
2014,09,20,02,31,14.20
2014,09,20,02,32,14.20
2014,09,20,02,33,14.20
2014,09,20,02,34,14.10
2014,09,20,02,35,14.10
2014,09,20,02,36,14.10
2014,09,20,02,37,14.10
2014,09,20,02,38,14.10
2014,09,20,02,39,14.10
2014,09,20,02,40,14.10
2014,09,20,02,41,14.10
2014,09,20,02,42,14.00
2014,09,20,02,43,14.00
2014,09,20,02,44,14.00
2014,09,20,02,45,14.00
2014,09,20,02,46,14.00
2014,09,20,02,47,14.00
2014,09,20,02,48,14.00
2014,09,20,02,49,13.90
2014,09,20,02,50,13.90
2014,09,20,02,51,13.90
2014,09,20,02,52,13.90
2014,09,20,02,53,13.90
2014,09,20,02,54,13.90
2014,09,20,02,55,13.90
2014,09,20,02,56,13.90
2014,09,20,02,57,13.90
2014,09,20,02,58,13.90
2014,09,20,02,59,13.90
2014,09,20,03,00,13.90
2014,09,20,03,01,13.90
2014,09,20,03,02,13.90
2014,09,20,03,03,13.90
2014,09,20,03,04,13.90
2014,09,20,03,05,13.90
2014,09,20,03,06,13.90
2014,09,20,03,07,13.90
2014,09,20,03,08,13.90
2014,09,20,03,09,13.90
2014,09,20,03,10,13.90
2014,09,20,03,11,13.80
2014,09,20,03,12,13.80
2014,09,20,03,13,13.80
2014,09,20,03,14,13.80
2014,09,20,03,15,13.80
2014,09,20,03,16,13.80
2014,09,20,03,17,13.80
2014,09,20,03,18,13.80
2014,09,20,03,19,13.80
2014,09,20,03,20,13.80
2014,09,20,03,21,13.90
2014,09,20,03,22,13.90
2014,09,20,03,23,13.90
2014,09,20,03,24,13.90
2014,09,20,03,25,13.90
2014,09,20,03,26,13.90
2014,09,20,03,27,13.90
2014,09,20,03,28,13.90
2014,09,20,03,29,13.90
2014,09,20,03,30,13.90
2014,09,20,03,31,13.90
2014,09,20,03,32,13.90
2014,09,20,03,33,14.00
2014,09,20,03,34,14.00
2014,09,20,03,35,14.00
2014,09,20,03,36,14.00
2014,09,20,03,37,14.10
2014,09,20,03,38,14.10
2014,09,20,03,39,14.10
2014,09,20,03,40,14.10
2014,09,20,03,41,14.10
2014,09,20,03,42,14.10
2014,09,20,03,43,14.10
2014,09,20,03,44,14.20
2014,09,20,03,45,14.20
2014,09,20,03,46,14.20
2014,09,20,03,47,14.20
2014,09,20,03,48,14.20
2014,09,20,03,49,14.20
2014,09,20,03,50,14.20
2014,09,20,03,51,14.20
2014,09,20,03,52,14.20
2014,09,20,03,53,14.20
2014,09,20,03,54,14.20
2014,09,20,03,55,14.20
2014,09,20,03,56,14.20
2014,09,20,03,57,14.20
2014,09,20,03,58,14.30
2014,09,20,03,59,14.30
2014,09,20,04,00,14.30
2014,09,20,04,01,14.30
2014,09,20,04,02,14.20
2014,09,20,04,03,14.20
2014,09,20,04,04,14.20
2014,09,20,04,05,14.20
2014,09,20,04,06,14.10
2014,09,20,04,07,14.10
2014,09,20,04,08,14.10
2014,09,20,04,09,14.00
2014,09,20,04,10,14.00
2014,09,20,04,11,14.00
2014,09,20,04,12,13.90
2014,09,20,04,13,13.90
2014,09,20,04,14,13.80
2014,09,20,04,15,13.80
2014,09,20,04,16,13.80
2014,09,20,04,17,13.80
2014,09,20,04,18,13.70
2014,09,20,04,19,13.60
2014,09,20,04,20,13.60
2014,09,20,04,21,13.50
2014,09,20,04,22,13.50
2014,09,20,04,23,13.40
2014,09,20,04,24,13.40
2014,09,20,04,25,13.30
2014,09,20,04,26,13.30
2014,09,20,04,27,13.30
2014,09,20,04,28,13.20
2014,09,20,04,29,13.20
2014,09,20,04,30,13.20
2014,09,20,04,31,13.10
2014,09,20,04,32,13.10
2014,09,20,04,33,13.10
2014,09,20,04,34,13.10
2014,09,20,04,35,13.00
2014,09,20,04,36,13.00
2014,09,20,04,37,13.00
2014,09,20,04,38,12.90
2014,09,20,04,39,12.90
2014,09,20,04,40,12.90
2014,09,20,04,41,12.90
2014,09,20,04,42,12.90
2014,09,20,04,43,12.90
2014,09,20,04,44,12.90
2014,09,20,04,45,12.90
2014,09,20,04,46,12.90
2014,09,20,04,47,12.90
2014,09,20,04,48,12.90
2014,09,20,04,49,12.90
2014,09,20,04,50,12.90
2014,09,20,04,51,12.90
2014,09,20,04,52,12.90
2014,09,20,04,53,12.90
2014,09,20,04,54,13.00
2014,09,20,04,55,13.00
2014,09,20,04,56,13.00
2014,09,20,04,57,13.00
2014,09,20,04,58,13.10
2014,09,20,04,59,13.10
2014,09,20,05,00,13.10
2014,09,20,05,01,13.10
2014,09,20,05,02,13.10
2014,09,20,05,03,13.20
2014,09,20,05,04,13.20
2014,09,20,05,05,13.20
2014,09,20,05,06,13.20
2014,09,20,05,07,13.20
2014,09,20,05,08,13.20
2014,09,20,05,09,13.20
2014,09,20,05,10,13.20
2014,09,20,05,11,13.20
2014,09,20,05,12,13.20
2014,09,20,05,13,13.20
2014,09,20,05,14,13.20
2014,09,20,05,15,13.20
2014,09,20,05,16,13.30
2014,09,20,05,17,13.30
2014,09,20,05,18,13.30
2014,09,20,05,19,13.30
2014,09,20,05,20,13.30
2014,09,20,05,21,13.30
2014,09,20,05,22,13.30
2014,09,20,05,23,13.30
2014,09,20,05,24,13.30
2014,09,20,05,25,13.30
2014,09,20,05,26,13.30
2014,09,20,05,27,13.30
2014,09,20,05,28,13.30
2014,09,20,05,29,13.30
2014,09,20,05,30,13.40
2014,09,20,05,31,13.40
2014,09,20,05,32,13.40
2014,09,20,05,33,13.40
2014,09,20,05,34,13.50
2014,09,20,05,35,13.60
2014,09,20,05,36,13.60
2014,09,20,05,37,13.70
2014,09,20,05,38,13.70
2014,09,20,05,39,13.70
2014,09,20,05,40,13.80
2014,09,20,05,41,13.80
2014,09,20,05,42,13.80
2014,09,20,05,43,13.80
2014,09,20,05,44,13.80
2014,09,20,05,45,13.90
2014,09,20,05,46,13.90
2014,09,20,05,47,14.00
2014,09,20,05,48,14.00
2014,09,20,05,49,14.10
2014,09,20,05,50,14.10
2014,09,20,05,51,14.10
2014,09,20,05,52,14.20
2014,09,20,05,53,14.20
2014,09,20,05,54,14.20
2014,09,20,05,55,14.20
2014,09,20,05,56,14.30
2014,09,20,05,57,14.30
2014,09,20,05,58,14.30
2014,09,20,05,59,14.30
2014,09,20,06,00,14.30
2014,09,20,06,01,14.30
2014,09,20,06,02,14.40
2014,09,20,06,03,14.40
2014,09,20,06,04,14.50
2014,09,20,06,05,14.60
2014,09,20,06,06,14.60
2014,09,20,06,07,14.60
2014,09,20,06,08,14.60
2014,09,20,06,09,14.70
2014,09,20,06,10,14.70
2014,09,20,06,11,14.70
2014,09,20,06,12,14.80
2014,09,20,06,13,14.80
2014,09,20,06,14,14.80
2014,09,20,06,15,14.80
2014,09,20,06,16,14.80
2014,09,20,06,17,14.80
2014,09,20,06,18,14.80
2014,09,20,06,19,14.70
2014,09,20,06,20,14.70
2014,09,20,06,21,14.60
2014,09,20,06,22,14.50
2014,09,20,06,23,14.50
2014,09,20,06,24,14.40
2014,09,20,06,25,14.40
2014,09,20,06,26,14.40
2014,09,20,06,27,14.30
2014,09,20,06,28,14.30
2014,09,20,06,29,14.30
2014,09,20,06,30,14.20
2014,09,20,06,31,14.20
2014,09,20,06,32,14.20
2014,09,20,06,33,14.20
2014,09,20,06,34,14.20
2014,09,20,06,35,14.20
2014,09,20,06,36,14.10
2014,09,20,06,37,14.10
2014,09,20,06,38,14.10
2014,09,20,06,39,14.10
2014,09,20,06,40,14.10
2014,09,20,06,41,14.10
2014,09,20,06,42,14.00
2014,09,20,06,43,14.00
2014,09,20,06,44,14.00
2014,09,20,06,45,14.00
2014,09,20,06,46,14.00
2014,09,20,06,47,14.00
2014,09,20,06,48,13.90
2014,09,20,06,49,13.90
2014,09,20,06,50,13.90
2014,09,20,06,51,13.90
2014,09,20,06,52,13.90
2014,09,20,06,53,13.90
2014,09,20,06,54,13.90
2014,09,20,06,55,14.00
2014,09,20,06,56,14.00
2014,09,20,06,57,14.10
2014,09,20,06,58,14.10
2014,09,20,06,59,14.20
2014,09,20,07,00,14.20
2014,09,20,07,01,14.20
2014,09,20,07,02,14.20
2014,09,20,07,03,14.30
2014,09,20,07,04,14.20
2014,09,20,07,05,14.20
2014,09,20,07,06,14.20
2014,09,20,07,07,14.20
2014,09,20,07,08,14.30
2014,09,20,07,09,14.30
2014,09,20,07,10,14.30
2014,09,20,07,11,14.30
2014,09,20,07,12,14.40
2014,09,20,07,13,14.40
2014,09,20,07,14,14.50
2014,09,20,07,15,14.50
2014,09,20,07,16,14.60
2014,09,20,07,17,14.60
2014,09,20,07,18,14.60
2014,09,20,07,19,14.70
2014,09,20,07,20,14.70
2014,09,20,07,21,14.70
2014,09,20,07,22,14.70
2014,09,20,07,23,14.70
2014,09,20,07,24,14.70
2014,09,20,07,25,14.60
2014,09,20,07,26,14.70
2014,09,20,07,27,14.70
2014,09,20,07,28,14.70
2014,09,20,07,29,14.70
2014,09,20,07,30,14.70
2014,09,20,07,31,14.70
2014,09,20,07,32,14.70
2014,09,20,07,33,14.70
2014,09,20,07,34,14.70
2014,09,20,07,35,14.70
2014,09,20,07,36,14.70
2014,09,20,07,37,14.70
2014,09,20,07,38,14.70
2014,09,20,07,39,14.70
2014,09,20,07,40,14.70
2014,09,20,07,41,14.70
2014,09,20,07,42,14.60
2014,09,20,07,43,14.60
2014,09,20,07,44,14.60
2014,09,20,07,45,14.60
2014,09,20,07,46,14.60
2014,09,20,07,47,14.60
2014,09,20,07,48,14.60
2014,09,20,07,49,14.60
2014,09,20,07,50,14.60
2014,09,20,07,51,14.60
2014,09,20,07,52,14.60
2014,09,20,07,53,14.60
2014,09,20,07,54,14.60
2014,09,20,07,55,14.60
2014,09,20,07,56,14.50
2014,09,20,07,57,14.50
2014,09,20,07,58,14.40
2014,09,20,07,59,14.40
2014,09,20,08,00,14.40
2014,09,20,08,01,14.40
2014,09,20,08,02,14.40
2014,09,20,08,03,14.40
2014,09,20,08,04,14.40
2014,09,20,08,05,14.40
2014,09,20,08,06,14.40
2014,09,20,08,07,14.40
2014,09,20,08,08,14.40
2014,09,20,08,09,14.40
2014,09,20,08,10,14.40
2014,09,20,08,11,14.40
2014,09,20,08,12,14.40
2014,09,20,08,13,14.40
2014,09,20,08,14,14.40
2014,09,20,08,15,14.40
2014,09,20,08,16,14.40
2014,09,20,08,17,14.50
2014,09,20,08,18,14.50
2014,09,20,08,19,14.50
2014,09,20,08,20,14.60
2014,09,20,08,21,14.60
2014,09,20,08,22,14.60
2014,09,20,08,23,14.60
2014,09,20,08,24,14.70
2014,09,20,08,25,14.70
2014,09,20,08,26,14.70
2014,09,20,08,27,14.70
2014,09,20,08,28,14.80
2014,09,20,08,29,14.80
2014,09,20,08,30,14.80
2014,09,20,08,31,14.80
2014,09,20,08,32,14.90
2014,09,20,08,33,14.90
2014,09,20,08,34,15.00
2014,09,20,08,35,15.00
2014,09,20,08,36,15.00
2014,09,20,08,37,15.00
2014,09,20,08,38,15.00
2014,09,20,08,39,15.00
2014,09,20,08,40,15.00
2014,09,20,08,41,15.00
2014,09,20,08,42,15.00
2014,09,20,08,43,15.00
2014,09,20,08,44,15.00
2014,09,20,08,45,15.00
2014,09,20,08,46,15.00
2014,09,20,08,47,14.90
2014,09,20,08,48,14.90
2014,09,20,08,49,14.90
2014,09,20,08,50,14.90
2014,09,20,08,51,15.00
2014,09,20,08,52,15.00
2014,09,20,08,53,15.00
2014,09,20,08,54,15.00
2014,09,20,08,55,15.00
2014,09,20,08,56,15.00
2014,09,20,08,57,15.00
2014,09,20,08,58,15.00
2014,09,20,08,59,15.00
2014,09,20,09,00,15.00
2014,09,20,09,01,15.00
2014,09,20,09,02,15.00
2014,09,20,09,03,15.00
2014,09,20,09,04,15.10
2014,09,20,09,05,15.10
2014,09,20,09,06,15.10
2014,09,20,09,07,15.10
2014,09,20,09,08,15.00
2014,09,20,09,09,15.00
2014,09,20,09,10,15.00
2014,09,20,09,11,15.00
2014,09,20,09,12,15.00
2014,09,20,09,13,15.00
2014,09,20,09,14,15.00
2014,09,20,09,15,15.10
2014,09,20,09,16,15.10
2014,09,20,09,17,15.10
2014,09,20,09,18,15.10
2014,09,20,09,19,15.20
2014,09,20,09,20,15.30
2014,09,20,09,21,15.40
2014,09,20,09,22,15.50
2014,09,20,09,23,15.60
2014,09,20,09,24,15.70
2014,09,20,09,25,15.80
2014,09,20,09,26,15.90
2014,09,20,09,27,16.00
2014,09,20,09,28,16.10
2014,09,20,09,29,16.20
2014,09,20,09,30,16.40
2014,09,20,09,31,16.50
2014,09,20,09,32,16.60
2014,09,20,09,33,16.70
2014,09,20,09,34,16.80
2014,09,20,09,35,16.80
2014,09,20,09,36,16.80
2014,09,20,09,37,16.90
2014,09,20,09,38,16.90
2014,09,20,09,39,17.00
2014,09,20,09,40,17.00
2014,09,20,09,41,17.10
2014,09,20,09,42,17.20
2014,09,20,09,43,17.20
2014,09,20,09,44,17.30
2014,09,20,09,45,17.30
2014,09,20,09,46,17.30
2014,09,20,09,47,17.40
2014,09,20,09,48,17.40
2014,09,20,09,49,17.50
2014,09,20,09,50,17.50
2014,09,20,09,51,17.60
2014,09,20,09,52,17.60
2014,09,20,09,53,17.60
2014,09,20,09,54,17.70
2014,09,20,09,55,17.60
2014,09,20,09,56,17.60
2014,09,20,09,57,17.60
2014,09,20,09,58,17.70
2014,09,20,09,59,17.70
2014,09,20,10,00,17.80
2014,09,20,10,01,17.80
2014,09,20,10,02,17.90
2014,09,20,10,03,18.00
2014,09,20,10,04,18.00
2014,09,20,10,05,18.20
2014,09,20,10,06,18.30
2014,09,20,10,07,18.40
2014,09,20,10,08,18.40
2014,09,20,10,09,18.40
2014,09,20,10,10,18.40
2014,09,20,10,11,18.40
2014,09,20,10,12,18.40
2014,09,20,10,13,18.50
2014,09,20,10,14,18.50
2014,09,20,10,15,18.60
2014,09,20,10,16,18.70
2014,09,20,10,17,18.80
2014,09,20,10,18,18.80
2014,09,20,10,19,18.90
2014,09,20,10,20,18.90
2014,09,20,10,21,18.90
2014,09,20,10,22,18.90
2014,09,20,10,23,18.90
2014,09,20,10,24,18.90
2014,09,20,10,25,18.90
2014,09,20,10,26,18.80
2014,09,20,10,27,18.80
2014,09,20,10,28,18.80
2014,09,20,10,29,18.90
2014,09,20,10,30,18.80
2014,09,20,10,31,18.80
2014,09,20,10,32,18.80
2014,09,20,10,33,18.80
2014,09,20,10,34,18.80
2014,09,20,10,35,18.80
2014,09,20,10,36,18.80
2014,09,20,10,37,18.90
2014,09,20,10,38,19.00
2014,09,20,10,39,19.00
2014,09,20,10,40,19.00
2014,09,20,10,41,18.90
2014,09,20,10,42,19.00
2014,09,20,10,43,19.10
2014,09,20,10,44,19.20
2014,09,20,10,45,19.20
2014,09,20,10,46,19.20
2014,09,20,10,47,19.30
2014,09,20,10,48,19.20
2014,09,20,10,49,19.30
2014,09,20,10,50,19.30
2014,09,20,10,51,19.30
2014,09,20,10,52,19.30
2014,09,20,10,53,19.30
2014,09,20,10,54,19.40
2014,09,20,10,55,19.40
2014,09,20,10,56,19.30
2014,09,20,10,57,19.20
2014,09,20,10,58,19.10
2014,09,20,10,59,19.20
2014,09,20,11,00,19.20
2014,09,20,11,01,19.20
2014,09,20,11,02,19.20
2014,09,20,11,03,19.20
2014,09,20,11,04,19.20
2014,09,20,11,05,19.30
2014,09,20,11,06,19.30
2014,09,20,11,07,19.40
2014,09,20,11,08,19.40
2014,09,20,11,09,19.40
2014,09,20,11,10,19.40
2014,09,20,11,11,19.40
2014,09,20,11,12,19.30
2014,09,20,11,13,19.30
2014,09,20,11,14,19.30
2014,09,20,11,15,19.30
2014,09,20,11,16,19.30
2014,09,20,11,17,19.30
2014,09,20,11,18,19.30
2014,09,20,11,19,19.30
2014,09,20,11,20,19.30
2014,09,20,11,21,19.30
2014,09,20,11,22,19.40
2014,09,20,11,23,19.50
2014,09,20,11,24,19.50
2014,09,20,11,25,19.50
2014,09,20,11,26,19.60
2014,09,20,11,27,19.50
2014,09,20,11,28,19.50
2014,09,20,11,29,19.50
2014,09,20,11,30,19.50
2014,09,20,11,31,19.50
2014,09,20,11,32,19.60
2014,09,20,11,33,19.50
2014,09,20,11,34,19.50
2014,09,20,11,35,19.50
2014,09,20,11,36,19.50
2014,09,20,11,37,19.50
2014,09,20,11,38,19.60
2014,09,20,11,39,19.60
2014,09,20,11,40,19.70
2014,09,20,11,41,19.80
2014,09,20,11,42,19.80
2014,09,20,11,43,19.80
2014,09,20,11,44,19.90
2014,09,20,11,45,19.90
2014,09,20,11,46,19.90
2014,09,20,11,47,19.90
2014,09,20,11,48,19.80
2014,09,20,11,49,19.80
2014,09,20,11,50,19.70
2014,09,20,11,51,19.70
2014,09,20,11,52,19.70
2014,09,20,11,53,19.70
2014,09,20,11,54,19.80
2014,09,20,11,55,19.80
2014,09,20,11,56,19.90
2014,09,20,11,57,19.90
2014,09,20,11,58,19.90
2014,09,20,11,59,19.90
2014,09,20,12,00,20.00
2014,09,20,12,01,20.10
2014,09,20,12,02,20.20
2014,09,20,12,03,20.20
2014,09,20,12,04,20.30
2014,09,20,12,05,20.40
2014,09,20,12,06,20.50
2014,09,20,12,07,20.50
2014,09,20,12,08,20.50
2014,09,20,12,09,20.50
2014,09,20,12,10,20.40
2014,09,20,12,11,20.40
2014,09,20,12,12,20.50
2014,09,20,12,13,20.60
2014,09,20,12,14,20.50
2014,09,20,12,15,20.50
2014,09,20,12,16,20.50
2014,09,20,12,17,20.50
2014,09,20,12,18,20.60
2014,09,20,12,19,20.60
2014,09,20,12,20,20.60
2014,09,20,12,21,20.60
2014,09,20,12,22,20.60
2014,09,20,12,23,20.70
2014,09,20,12,24,20.80
2014,09,20,12,25,20.80
2014,09,20,12,26,20.80
2014,09,20,12,27,20.60
2014,09,20,12,28,20.50
2014,09,20,12,29,20.40
2014,09,20,12,30,20.30
2014,09,20,12,31,20.30
2014,09,20,12,32,20.30
2014,09,20,12,33,20.40
2014,09,20,12,34,20.50
2014,09,20,12,35,20.60
2014,09,20,12,36,20.60
2014,09,20,12,37,20.60
2014,09,20,12,38,20.60
2014,09,20,12,39,20.60
2014,09,20,12,40,20.50
2014,09,20,12,41,20.50
2014,09,20,12,42,20.40
2014,09,20,12,43,20.40
2014,09,20,12,44,20.50
2014,09,20,12,45,20.50
2014,09,20,12,46,20.60
2014,09,20,12,47,20.60
2014,09,20,12,48,20.60
2014,09,20,12,49,20.60
2014,09,20,12,50,20.60
2014,09,20,12,51,20.60
2014,09,20,12,52,20.70
2014,09,20,12,53,20.70
2014,09,20,12,54,20.70
2014,09,20,12,55,20.70
2014,09,20,12,56,20.70
2014,09,20,12,57,20.70
2014,09,20,12,58,20.80
2014,09,20,12,59,20.80
2014,09,20,13,00,20.80
2014,09,20,13,01,20.80
2014,09,20,13,02,20.80
2014,09,20,13,03,20.80
2014,09,20,13,04,20.80
2014,09,20,13,05,20.80
2014,09,20,13,06,20.70
2014,09,20,13,07,20.70
2014,09,20,13,08,20.70
2014,09,20,13,09,20.70
2014,09,20,13,10,20.70
2014,09,20,13,11,20.70
2014,09,20,13,12,20.80
2014,09,20,13,13,20.80
2014,09,20,13,14,20.80
2014,09,20,13,15,20.80
2014,09,20,13,16,20.80
2014,09,20,13,17,20.80
2014,09,20,13,18,20.90
2014,09,20,13,19,21.00
2014,09,20,13,20,21.10
2014,09,20,13,21,21.10
2014,09,20,13,22,21.20
2014,09,20,13,23,21.20
2014,09,20,13,24,21.20
2014,09,20,13,25,21.20
2014,09,20,13,26,21.20
2014,09,20,13,27,21.30
2014,09,20,13,28,21.40
2014,09,20,13,29,21.40
2014,09,20,13,30,21.50
2014,09,20,13,31,21.50
2014,09,20,13,32,21.50
2014,09,20,13,33,21.60
2014,09,20,13,34,21.60
2014,09,20,13,35,21.60
2014,09,20,13,36,21.50
2014,09,20,13,37,21.40
2014,09,20,13,38,21.40
2014,09,20,13,39,21.30
2014,09,20,13,40,21.20
2014,09,20,13,41,21.20
2014,09,20,13,42,21.20
2014,09,20,13,43,21.20
2014,09,20,13,44,21.30
2014,09,20,13,45,21.30
2014,09,20,13,46,21.30
2014,09,20,13,47,21.30
2014,09,20,13,48,21.30
2014,09,20,13,49,21.30
2014,09,20,13,50,21.20
2014,09,20,13,51,21.20
2014,09,20,13,52,21.20
2014,09,20,13,53,21.20
2014,09,20,13,54,21.30
2014,09,20,13,55,21.40
2014,09,20,13,56,21.40
2014,09,20,13,57,21.30
2014,09,20,13,58,21.30
2014,09,20,13,59,21.30
2014,09,20,14,00,21.30
2014,09,20,14,01,21.20
2014,09,20,14,02,21.20
2014,09,20,14,03,21.30
2014,09,20,14,04,21.40
2014,09,20,14,05,21.40
2014,09,20,14,06,21.40
2014,09,20,14,07,21.30
2014,09,20,14,08,21.20
2014,09,20,14,09,21.20
2014,09,20,14,10,21.20
2014,09,20,14,11,21.10
2014,09,20,14,12,21.10
2014,09,20,14,13,21.00
2014,09,20,14,14,21.00
2014,09,20,14,15,21.00
2014,09,20,14,16,21.00
2014,09,20,14,17,21.00
2014,09,20,14,18,21.00
2014,09,20,14,19,21.00
2014,09,20,14,20,21.10
2014,09,20,14,21,21.20
2014,09,20,14,22,21.20
2014,09,20,14,23,21.20
2014,09,20,14,24,21.30
2014,09,20,14,25,21.30
2014,09,20,14,26,21.30
2014,09,20,14,27,21.30
2014,09,20,14,28,21.30
2014,09,20,14,29,21.30
2014,09,20,14,30,21.30
2014,09,20,14,31,21.30
2014,09,20,14,32,21.40
2014,09,20,14,33,21.40
2014,09,20,14,34,21.40
2014,09,20,14,35,21.40
2014,09,20,14,36,21.30
2014,09,20,14,37,21.30
2014,09,20,14,38,21.30
2014,09,20,14,39,21.40
2014,09,20,14,40,21.50
2014,09,20,14,41,21.60
2014,09,20,14,42,21.60
2014,09,20,14,43,21.70
2014,09,20,14,44,21.70
2014,09,20,14,45,21.70
2014,09,20,14,46,21.70
2014,09,20,14,47,21.60
2014,09,20,14,48,21.60
2014,09,20,14,49,21.60
2014,09,20,14,50,21.60
2014,09,20,14,51,21.60
2014,09,20,14,52,21.70
2014,09,20,14,53,21.80
2014,09,20,14,54,21.80
2014,09,20,14,55,21.80
2014,09,20,14,56,21.80
2014,09,20,14,57,21.80
2014,09,20,14,58,21.80
2014,09,20,14,59,21.80
2014,09,20,15,00,21.90
2014,09,20,15,01,21.90
2014,09,20,15,02,22.00
2014,09,20,15,03,22.10
2014,09,20,15,04,22.10
2014,09,20,15,05,22.10
2014,09,20,15,06,22.10
2014,09,20,15,07,22.20
2014,09,20,15,08,22.20
2014,09,20,15,09,22.20
2014,09,20,15,10,22.20
2014,09,20,15,11,22.20
2014,09,20,15,12,22.20
2014,09,20,15,13,22.30
2014,09,20,15,14,22.30
2014,09,20,15,15,22.30
2014,09,20,15,16,22.30
2014,09,20,15,17,22.30
2014,09,20,15,18,22.30
2014,09,20,15,19,22.30
2014,09,20,15,20,22.40
2014,09,20,15,21,22.50
2014,09,20,15,22,22.50
2014,09,20,15,23,22.40
2014,09,20,15,24,22.40
2014,09,20,15,25,22.40
2014,09,20,15,26,22.50
2014,09,20,15,27,22.50
2014,09,20,15,28,22.60
2014,09,20,15,29,22.60
2014,09,20,15,30,22.70
2014,09,20,15,31,22.60
2014,09,20,15,32,22.60
2014,09,20,15,33,22.60
2014,09,20,15,34,22.60
2014,09,20,15,35,22.60
2014,09,20,15,36,22.60
2014,09,20,15,37,22.60
2014,09,20,15,38,22.60
2014,09,20,15,39,22.70
2014,09,20,15,40,22.70
2014,09,20,15,41,22.80
2014,09,20,15,42,22.80
2014,09,20,15,43,22.80
2014,09,20,15,44,22.80
2014,09,20,15,45,22.70
2014,09,20,15,46,22.70
2014,09,20,15,47,22.60
2014,09,20,15,48,22.60
2014,09,20,15,49,22.70
2014,09,20,15,50,22.70
2014,09,20,15,51,22.70
2014,09,20,15,52,22.70
2014,09,20,15,53,22.80
2014,09,20,15,54,22.80
2014,09,20,15,55,22.80
2014,09,20,15,56,22.70
2014,09,20,15,57,22.70
2014,09,20,15,58,22.70
2014,09,20,15,59,22.70
2014,09,20,16,00,22.70
2014,09,20,16,01,22.70
2014,09,20,16,02,22.60
2014,09,20,16,03,22.60
2014,09,20,16,04,22.60
2014,09,20,16,05,22.70
2014,09,20,16,06,22.70
2014,09,20,16,07,22.80
2014,09,20,16,08,22.80
2014,09,20,16,09,22.80
2014,09,20,16,10,22.80
2014,09,20,16,11,22.80
2014,09,20,16,12,22.90
2014,09,20,16,13,23.00
2014,09,20,16,14,23.00
2014,09,20,16,15,23.10
2014,09,20,16,16,23.00
2014,09,20,16,17,23.00
2014,09,20,16,18,22.90
2014,09,20,16,19,22.80
2014,09,20,16,20,22.80
2014,09,20,16,21,22.80
2014,09,20,16,22,22.70
2014,09,20,16,23,22.60
2014,09,20,16,24,22.60
2014,09,20,16,25,22.50
2014,09,20,16,26,22.40
2014,09,20,16,27,22.40
2014,09,20,16,28,22.40
2014,09,20,16,29,22.40
2014,09,20,16,30,22.40
2014,09,20,16,31,22.50
2014,09,20,16,32,22.40
2014,09,20,16,33,22.40
2014,09,20,16,34,22.40
2014,09,20,16,35,22.40
2014,09,20,16,36,22.30
2014,09,20,16,37,22.30
2014,09,20,16,38,22.40
2014,09,20,16,39,22.40
2014,09,20,16,40,22.40
2014,09,20,16,41,22.40
2014,09,20,16,42,22.40
2014,09,20,16,43,22.40
2014,09,20,16,44,22.50
2014,09,20,16,45,22.50
2014,09,20,16,46,22.60
2014,09,20,16,47,22.70
2014,09,20,16,48,22.70
2014,09,20,16,49,22.70
2014,09,20,16,50,22.80
2014,09,20,16,51,22.80
2014,09,20,16,52,22.90
2014,09,20,16,53,22.90
2014,09,20,16,54,22.90
2014,09,20,16,55,23.00
2014,09,20,16,56,23.00
2014,09,20,16,57,23.10
2014,09,20,16,58,23.20
2014,09,20,16,59,23.20
2014,09,20,17,00,23.20
2014,09,20,17,01,23.30
2014,09,20,17,02,23.20
2014,09,20,17,03,23.20
2014,09,20,17,04,23.20
2014,09,20,17,05,23.20
2014,09,20,17,06,23.10
2014,09,20,17,07,23.10
2014,09,20,17,08,23.10
2014,09,20,17,09,23.10
2014,09,20,17,10,23.10
2014,09,20,17,11,23.00
2014,09,20,17,12,23.00
2014,09,20,17,13,23.00
2014,09,20,17,14,23.00
2014,09,20,17,15,23.00
2014,09,20,17,16,22.90
2014,09,20,17,17,23.00
2014,09,20,17,18,23.00
2014,09,20,17,19,23.00